GW6857 Weather Reports


time (UTC)temp
F
wind
direction
speed
knots
gust
knots
rain 1hr
in
rain 24hr
in
rain mn
in
humidity
%
barometer
mb
20260505122504 66 176 4.3 7.8 0.00 0.00 0.00 60 1012.0
20260505122005 65 243 1.7 5.2 0.00 0.00 0.00 61 1012.0
20260505121508 65 170 1.7 4.3 0.00 0.00 0.00 63 1012.0
20260505121003 65 229 1.7 5.2 0.00 0.00 0.00 65 1012.0
20260505120508 65 265 0.9 5.2 0.00 0.00 0.00 64 1011.8
20260505120008 64 211 1.7 5.2 0.00 0.00 0.00 64 1011.7
20260505115506 64 227 0.9 5.2 0.00 0.00 0.00 65 1011.8
20260505115002 63 168 0.9 5.2 0.00 0.00 0.00 67 1011.7
20260505114508 63 211 0.0 5.2 0.00 0.00 0.00 68 1011.8
20260505114007 62 178 0.9 2.6 0.00 0.00 0.00 70 1011.8
20260505113507 61 193 0.9 2.6 0.00 0.00 0.00 71 1011.7
20260505113011 61 182 0.0 1.7 0.00 0.00 0.00 72 1011.7
20260505112502 59 214 0.0 1.7 0.00 0.00 0.00 76 1011.8
20260505112003 58 206 0.0 0.0 0.00 0.00 0.00 80 1011.8
20260505111509 57 206 0.0 0.0 0.00 0.00 0.00 83 1011.7
20260505111006 56 206 0.0 0.0 0.00 0.00 0.00 84 1011.6
20260505110507 56 206 0.0 0.0 0.00 0.00 0.00 85 1011.7
20260505102002 57 206 0.0 0.0 0.00 0.00 0.00 79 1011.1
20260505101514 57 206 0.0 0.9 0.00 0.00 0.00 79 1011.0
20260505101002 57 206 0.0 1.7 0.00 0.00 0.00 79 1010.9
20260505100506 57 210 0.0 1.7 0.00 0.00 0.00 80 1010.9
20260505100008 56 210 0.0 1.7 0.00 0.00 0.00 80 1010.9
20260505095502 55 200 0.0 0.0 0.00 0.00 0.00 82 1010.9
20260505095004 55 200 0.0 0.0 0.00 0.00 0.00 83 1011.0
20260505094513 54 200 0.0 0.0 0.00 0.00 0.00 84 1010.9
20260505094003 53 200 0.0 0.0 0.00 0.00 0.00 84 1011.0
20260505093503 53 200 0.0 0.0 0.00 0.00 0.00 84 1011.0
20260505093014 53 200 0.0 0.0 0.00 0.00 0.00 84 1011.0
20260505092508 53 200 0.0 0.0 0.00 0.00 0.00 82 1010.9
20260505092003 53 200 0.0 0.0 0.00 0.00 0.00 82 1010.9
20260505091515 54 200 0.0 0.0 0.00 0.00 0.00 81 1010.8
20260505091004 54 200 0.0 0.0 0.00 0.00 0.00 82 1010.8
20260505090506 54 200 0.0 0.0 0.00 0.00 0.00 81 1010.9
20260505090014 54 200 0.0 0.0 0.00 0.00 0.00 81 1010.9
20260505085509 54 200 0.0 0.0 0.00 0.00 0.00 81 1011.0
20260505085003 55 200 0.0 0.0 0.00 0.00 0.00 79 1011.0
20260505084532 56 200 0.0 0.0 0.00 0.00 0.00 79 1011.0
20260505084004 56 200 0.0 0.0 0.00 0.00 0.00 78 1011.1
20260505083504 56 200 0.0 0.0 0.00 0.00 0.00 78 1011.1
20260505083012 57 200 0.0 1.7 0.00 0.00 0.00 76 1011.1
20260505082506 57 200 0.0 1.7 0.00 0.00 0.00 75 1011.1
20260505082007 57 200 0.0 1.7 0.00 0.00 0.00 75 1011.0
20260505081518 57 191 0.0 1.7 0.00 0.00 0.00 76 1011.1
20260505081007 57 188 0.0 1.7 0.00 0.00 0.00 75 1011.0
20260505080506 57 189 0.0 1.7 0.00 0.00 0.00 75 1011.0
20260505080016 57 194 0.9 1.7 0.00 0.00 0.00 75 1011.0
20260505075504 57 182 0.9 3.5 0.00 0.00 0.00 75 1010.9
20260505075004 57 214 0.9 3.5 0.00 0.00 0.00 75 1010.9
20260505074516 57 207 0.0 1.7 0.00 0.00 0.00 75 1010.9
20260505074006 57 205 0.0 1.7 0.00 0.00 0.00 74 1010.9
20260505073503 57 201 0.9 3.5 0.00 0.00 0.00 74 1010.9
20260505073015 57 178 0.9 3.5 0.00 0.00 0.00 74 1010.9
20260505072503 57 207 0.9 3.5 0.00 0.00 0.00 74 1010.8
20260505072010 57 215 0.9 3.5 0.00 0.00 0.00 74 1010.8
20260505071519 57 196 0.9 2.6 0.00 0.00 0.00 74 1010.8
20260505071007 57 189 0.9 4.3 0.00 0.00 0.00 74 1010.8
20260505070504 57 202 0.9 4.3 0.00 0.00 0.00 73 1010.7
20260505070018 57 200 0.9 4.3 0.00 0.00 0.00 73 1010.6
20260505065509 58 205 1.7 4.3 0.00 0.00 0.00 73 1010.6
20260505065002 58 184 0.9 2.6 0.00 0.00 0.00 73 1010.6
20260505064506 58 185 0.9 3.5 0.00 0.00 0.00 72 1010.6
20260505064001 58 205 0.9 3.5 0.00 0.00 0.00 72 1010.7
20260505063502 58 204 0.9 5.2 0.00 0.00 0.00 72 1010.7
20260505063011 58 196 2.6 4.3 0.00 0.00 0.00 72 1010.7
20260505062503 58 202 0.0 4.3 0.00 0.00 0.00 71 1010.8
20260505062005 58 192 1.7 4.3 0.00 0.00 0.00 71 1010.8
20260505061520 58 201 1.7 6.1 0.00 0.00 0.00 71 1010.9
20260505061007 58 198 2.6 6.1 0.00 0.00 0.00 70 1010.9
20260505060509 58 194 0.9 6.1 0.00 0.00 0.00 70 1010.9
20260505060020 59 185 1.7 6.1 0.00 0.00 0.00 69 1010.8
20260505055509 58 205 1.7 5.2 0.00 0.00 0.00 69 1010.9
20260505055009 58 172 1.7 7.0 0.00 0.00 0.00 69 1010.9
20260505054519 58 209 0.9 7.0 0.00 0.00 0.00 69 1010.9
20260505054003 58 173 1.7 7.0 0.00 0.00 0.00 69 1010.9
20260505053502 58 213 0.9 3.5 0.00 0.00 0.00 69 1010.9
20260505053009 58 179 0.9 2.6 0.00 0.00 0.00 69 1010.9
20260505052506 58 202 0.0 4.3 0.00 0.00 0.00 68 1010.9
20260505052006 58 167 0.0 4.3 0.00 0.00 0.00 68 1010.9
20260505051517 59 197 0.9 4.3 0.00 0.00 0.00 68 1010.9
20260505051007 59 194 1.7 5.2 0.00 0.00 0.00 67 1010.9
20260505050508 59 171 1.7 5.2 0.00 0.00 0.00 67 1010.9
20260505041512 60 230 3.5 8.7 0.00 0.00 0.00 63 1011.1
20260505041003 60 156 2.6 8.7 0.00 0.00 0.00 63 1011.1
20260505040508 60 209 1.7 7.0 0.00 0.00 0.00 62 1011.2
20260505040016 60 202 2.6 7.0 0.00 0.00 0.00 62 1011.2
20260505035508 60 233 1.7 5.2 0.00 0.00 0.00 63 1011.1
20260505035008 60 204 1.7 5.2 0.00 0.00 0.00 63 1011.1
20260505034524 60 266 1.7 5.2 0.00 0.00 0.00 63 1011.0
20260505034012 60 200 1.7 4.3 0.00 0.00 0.00 63 1011.0
20260505033516 60 188 1.7 3.5 0.00 0.00 0.00 63 1011.1
20260505033024 59 232 1.7 5.2 0.00 0.00 0.00 64 1011.2
20260505032507 59 184 1.7 5.2 0.00 0.00 0.00 64 1011.2
20260505032008 59 194 0.9 3.5 0.00 0.00 0.00 64 1011.2
20260505031512 59 225 0.9 4.3 0.00 0.00 0.00 63 1011.2
20260505031003 59 208 1.7 4.3 0.00 0.00 0.00 63 1011.3
20260505030503 59 184 0.9 4.3 0.00 0.00 0.00 63 1011.3
20260505030014 59 192 0.9 7.0 0.00 0.00 0.00 63 1011.2
20260505025508 60 200 2.6 7.0 0.00 0.00 0.00 62 1011.3
20260505025007 60 197 1.7 6.1 0.00 0.00 0.00 62 1011.3
20260505024517 60 187 2.6 6.1 0.00 0.00 0.00 62 1011.4
20260505024008 60 187 1.7 6.1 0.00 0.00 0.00 62 1011.4
20260505023507 60 212 1.7 6.1 0.00 0.00 0.00 62 1011.3
20260505023024 60 194 1.7 4.3 0.00 0.00 0.00 61 1011.4
20260505022507 60 198 1.7 4.3 0.00 0.00 0.00 62 1011.4
20260505022010 60 182 0.9 3.5 0.00 0.00 0.00 61 1011.5
20260505021524 60 197 0.9 3.5 0.00 0.00 0.00 60 1011.4
20260505021006 60 179 0.9 3.5 0.00 0.00 0.00 60 1011.4
20260505020507 60 200 0.9 5.2 0.00 0.00 0.00 59 1011.5
20260505020015 61 207 1.7 6.1 0.00 0.00 0.00 58 1011.5
20260505015507 61 200 2.6 6.1 0.00 0.00 0.00 57 1011.5
20260505015004 61 188 0.9 6.1 0.00 0.00 0.00 57 1011.6
20260505014518 61 205 1.7 6.1 0.00 0.00 0.00 56 1011.6
20260505014006 61 209 1.7 6.1 0.00 0.00 0.00 55 1011.5
20260505013506 61 225 0.9 3.5 0.00 0.00 0.00 55 1011.4
20260505013020 62 156 0.9 5.2 0.00 0.00 0.00 54 1011.4
20260505012507 62 185 1.7 5.2 0.00 0.00 0.00 53 1011.4
20260505012011 62 198 1.7 4.3 0.00 0.00 0.00 52 1011.2
20260505011544 63 215 0.9 5.2 0.00 0.00 0.00 52 1011.2
20260505011008 63 207 1.7 5.2 0.00 0.00 0.00 51 1011.1
20260505010502 63 186 0.9 3.5 0.00 0.00 0.00 51 1011.1
20260505010015 63 186 0.9 5.2 0.00 0.00 0.00 49 1011.0
20260505005503 64 201 1.7 7.0 0.00 0.00 0.00 48 1010.9
20260505005004 63 213 1.7 7.0 0.00 0.00 0.00 48 1010.9
20260505004516 63 201 0.0 1.7 0.00 0.00 0.00 47 1010.9
20260505004006 63 217 0.0 1.7 0.00 0.00 0.00 48 1010.8
20260505003508 63 215 0.0 1.7 0.00 0.00 0.00 47 1010.8
20260505003020 64 215 0.0 1.7 0.00 0.00 0.00 46 1010.7
20260505002508 64 210 0.0 1.7 0.00 0.00 0.00 45 1010.7
20260505002011 65 211 0.0 1.7 0.00 0.00 0.00 43 1010.6
20260505001525 66 208 0.0 1.7 0.00 0.00 0.00 42 1010.6
20260505001012 66 193 0.0 1.7 0.00 0.00 0.00 42 1010.5
20260505000505 66 190 0.0 1.7 0.00 0.00 0.00 41 1010.5
20260505000006 67 198 0.0 3.5 0.00 0.00 0.00 40 1010.4
20260504235503 68 191 0.9 4.3 0.00 0.00 0.00 38 1010.4
20260504235007 68 189 0.9 4.3 0.00 0.00 0.00 38 1010.3
20260504234512 68 202 1.7 4.3 0.00 0.00 0.00 37 1010.2
20260504234002 69 261 0.9 4.3 0.00 0.00 0.00 37 1010.2
20260504233507 69 220 0.9 8.7 0.00 0.00 0.00 37 1010.1
20260504233016 69 186 3.5 7.8 0.00 0.00 0.00 37 1010.1
20260504232507 69 226 1.7 6.1 0.00 0.00 0.00 36 1010.1
20260504232010 69 200 0.9 7.0 0.00 0.00 0.00 38 1010.1
20260504231521 70 184 1.7 9.6 0.00 0.00 0.00 35 1010.1
20260504231008 70 157 3.5 9.6 0.00 0.00 0.00 35 1010.1
20260504230507 70 161 1.7 8.7 0.00 0.00 0.00 35 1010.1
20260504230025 70 108 2.6 8.7 0.00 0.00 0.00 35 1010.1
20260504225505 70 187 3.5 8.7 0.00 0.00 0.00 35 1010.0
20260504225002 70 277 1.7 7.0 0.00 0.00 0.00 36 1010.0
20260504224513 70 192 1.7 7.0 0.00 0.00 0.00 36 1010.0
20260504224003 70 270 1.7 5.2 0.00 0.00 0.00 34 1010.0
20260504223503 71 22 1.7 5.2 0.00 0.00 0.00 34 1009.9
20260504223018 71 265 1.7 5.2 0.00 0.00 0.00 35 1009.9
20260504222506 71 240 1.7 5.2 0.00 0.00 0.00 35 1009.9
20260504222007 71 196 1.7 8.7 0.00 0.00 0.00 35 1010.0
20260504221519 72 207 1.7 8.7 0.00 0.00 0.00 34 1010.0
20260504221012 72 186 3.5 8.7 0.00 0.00 0.00 33 1010.0
20260504220508 72 265 3.5 7.8 0.00 0.00 0.00 34 1010.0
20260504220024 72 161 2.6 7.0 0.00 0.00 0.00 35 1010.1
20260504215508 72 269 3.5 10.4 0.00 0.00 0.00 33 1010.2
20260504215009 72 246 3.5 10.4 0.00 0.00 0.00 32 1010.2
20260504214526 73 263 1.7 7.8 0.00 0.00 0.00 34 1010.2
20260504214002 73 149 1.7 7.0 0.00 0.00 0.00 34 1010.2
20260504213503 72 278 1.7 7.0 0.00 0.00 0.00 35 1010.2
20260504213012 73 248 3.5 7.0 0.00 0.00 0.00 37 1010.3
20260504212503 72 205 2.6 6.1 0.00 0.00 0.00 34 1010.2
20260504212007 73 200 1.7 9.6 0.00 0.00 0.00 34 1010.2
20260504211517 73 265 4.3 9.6 0.00 0.00 0.00 33 1010.3
20260504211007 73 257 2.6 9.6 0.00 0.00 0.00 33 1010.3
20260504210509 73 323 3.5 9.6 0.00 0.00 0.00 32 1010.2
20260504210021 73 290 1.7 7.8 0.00 0.00 0.00 36 1010.2
20260504205506 73 234 1.7 7.8 0.00 0.00 0.00 33 1010.2
20260504205011 73 226 3.5 7.8 0.00 0.00 0.00 31 1010.2
20260504204525 73 288 3.5 9.6 0.00 0.00 0.00 32 1010.3
20260504204010 73 167 2.6 9.6 0.00 0.00 0.00 32 1010.3
20260504203513 73 236 3.5 8.7 0.00 0.00 0.00 36 1010.2
20260504203012 73 153 2.6 8.7 0.00 0.00 0.00 32 1010.1
20260504202507 73 286 2.6 9.6 0.00 0.00 0.00 34 1010.2
20260504202006 72 256 4.3 9.6 0.00 0.00 0.00 32 1010.2
20260504201515 73 231 3.5 9.6 0.00 0.00 0.00 33 1010.2
20260504201007 73 279 2.6 7.8 0.00 0.00 0.00 33 1010.2
20260504200511 72 227 2.6 7.8 0.00 0.00 0.00 37 1010.3
20260504200018 73 109 2.6 7.8 0.00 0.00 0.00 33 1010.3
20260504195507 73 284 3.5 7.8 0.00 0.00 0.00 34 1010.4
20260504195007 72 251 3.5 7.8 0.00 0.00 0.00 33 1010.4
20260504194530 72 247 3.5 10.4 0.00 0.00 0.00 33 1010.6
20260504194009 72 232 3.5 10.4 0.00 0.00 0.00 34 1010.6
20260504193509 72 271 3.5 12.2 0.00 0.00 0.00 34 1010.6
20260504193026 72 217 4.3 12.2 0.00 0.00 0.00 34 1010.6
20260504192510 72 205 1.7 12.2 0.00 0.00 0.00 35 1010.8
20260504192009 72 201 5.2 10.4 0.00 0.00 0.00 32 1010.7
20260504191513 72 236 3.5 7.8 0.00 0.00 0.00 33 1010.9
20260504191007 72 273 2.6 7.8 0.00 0.00 0.00 36 1011.0
20260504190509 71 185 4.3 10.4 0.00 0.00 0.00 34 1011.1
20260504190028 71 197 4.3 10.4 0.00 0.00 0.00 36 1011.1
20260504185507 72 250 4.3 9.6 0.00 0.00 0.00 34 1011.2
20260504185008 71 259 3.5 8.7 0.00 0.00 0.00 33 1011.3
20260504184524 71 266 2.6 11.3 0.00 0.00 0.00 33 1011.4
20260504184011 71 286 4.3 13.0 0.00 0.00 0.00 36 1011.5
20260504183511 71 167 4.3 13.0 0.00 0.00 0.00 32 1011.4
20260504183026 71 149 4.3 12.2 0.00 0.00 0.00 33 1011.5
20260504182512 72 256 3.5 10.4 0.00 0.00 0.00 34 1011.6
20260504182012 71 281 2.6 10.4 0.00 0.00 0.00 35 1011.6
20260504181526 71 192 3.5 9.6 0.00 0.00 0.00 34 1011.7
20260504181012 71 267 2.6 11.3 0.00 0.00 0.00 36 1011.8
20260504180513 70 201 5.2 11.3 0.00 0.00 0.00 33 1011.8
20260504180017 70 230 2.6 10.4 0.00 0.00 0.00 33 1011.9
20260504175509 70 311 3.5 9.6 0.00 0.00 0.00 36 1012.0
20260504175012 69 275 2.6 9.6 0.00 0.00 0.00 37 1012.0
20260504174519 70 265 3.5 9.6 0.00 0.00 0.00 36 1012.1
20260504174008 70 274 4.3 7.8 0.00 0.00 0.00 35 1012.1
20260504173508 70 180 3.5 7.0 0.00 0.00 0.00 38 1012.1
20260504173024 69 219 3.5 9.6 0.00 0.00 0.00 40 1012.2
20260504172508 69 281 3.5 9.6 0.00 0.00 0.00 34 1012.3
20260504172010 71 228 3.5 9.6 0.00 0.00 0.00 35 1012.5
20260504171534 70 235 0.9 8.7 0.00 0.00 0.00 40 1012.4
20260504171012 69 233 2.6 8.7 0.00 0.00 0.00 35 1012.6
20260504170511 69 200 3.5 6.1 0.00 0.00 0.00 37 1012.7
20260504151005 65 250 3.5 10.4 0.00 0.00 0.00 46 1013.7
20260504150503 65 232 3.5 8.7 0.00 0.00 0.00 46 1013.7
20260504141003 62 197 4.3 7.8 0.00 0.00 0.00 47 1014.0
20260504140503 62 189 3.5 7.8 0.00 0.00 0.00 49 1014.0
20260504130502 57 159 3.5 8.7 0.00 0.00 0.00 59 1014.7